Location: Dompnac
(44.5644°N, 4.1026°E)
Time: 23:17:33
(UTC+00:00)

Cosmos 1626 - Pass Details

Date: 21 January 2021
Orbit: 490 x 494 km, 82.5° (Epoch: 25 February)

Event Time Altitude Azimuth Distance (km) Brightness Sun altitude
Rises 17:48:42 0° 223° (SW) 2,566 6.8 -12.6°
Reaches altitude 10° 17:51:16 10° 242° (WSW) 1,688 6.2 -13.1°
Maximum altitude 17:53:58 19° 288° (WNW) 1,235 4.9 -13.5°
Drops below altitude 10° 17:56:40 10° 335° (NNW) 1,697 4.9 -14.0°
Sets 17:59:16 0° 354° (N) 2,584 5.7 -14.4°
